Погода в Житковичи

Погода в Житковичи : погода сейчас, прогноз погоды и архив. Всё, что Вы хотите узнать о погоде в Житковичи!

Хотите узнать прогноз погоды в Житковичи? Тогда Вам сюда: Погода в Житковичи

Поиск расширенной информации на нашем сайте:

Полезная информация: Круг отрезной инваб.

Другие новости

Новости СМИ2

Главная страница сайта

Новости сайта

03.07.2017

Напоминаем, что на нашем специализированном сайте Метеоцентр.Азия вы можете получить высокодетализированные автоматические прогнозы погоды по пунктам России, СНГ и мира в авиационном формате (включающие направление и скорость ветра, видимость, явления погоды, количество и форму облачности, нижнюю и верхнюю границу облачности).

Рекомендуем: Ворота гаражные секционные отзыв о гаражные секционные ворота.

Погода в Житковичи - сегодня

Время (UTC), дата Ветер
(°,м/с) 
Видим.   Явления Облачность Т
(°С)
Тd
(°С)
f(%) Тe
(°С)
Pmin
(гПа)
dP
(гПа)
Po
(мм)
O2
(г/м3)
Тmin Tmax R s Состояние
почвы
18 24.05.18 010 (С) 20000 м    1/0 средняя 
[Ac cuf]
+17.4 +12 71 +22  1020  -0.4  753  283    +22.2       
21 24.05.18 330 (СЗ) 10 км    ясно 
+14 +11 82 +17  1020.1  753  287           
00 25.05.18 тихо ()   4000 м  дымка  ясно 
+11.9 +11 94 +14  1020.1  -0.1  753  289           
03 25.05.18 010 (С) 4000 м  дымка  6/4 600 м кучево-дожд., средняя 
[Cb cap|Ac trans]
+11 +10.4 96 +14  1020.7  0.5  753  290           
06 25.05.18 010 (С) 10 км    3/1 600 м средняя 
[Sc diur, vesp|Ac trans]
+17.4 +13.9 80 +26  1021.3  754  283  +10.5         
09 25.05.18 090 (В) 20000 м    4/3 600 м средняя 
[Cu med, cong|Ac trans]
+25 +13.2 48 +31  1021.1  0.2  754  276           
12 25.05.18 090 (В) 20000 м    9/3 600 м кучево-дожд., средняя, верхняя 
[Cb cap|Ac trans|Ci fib]
+26.3 +12.7 43 +31  1021  754  275           
15 25.05.18 080 (В) 20000 м    8/1 600 м кучево-дожд., средняя, верхняя 
[Cb cap|Ac cuf|Ci fib]
+25.8 +12.7 44 +31  1021.2  0.2  754  275           
18 25.05.18 050 (СВ) 20000 м    8/3 600 м средняя, верхняя 
[Sc|Ac trans|Ci fib]
+22.9 +12.2 51 +27  1022.4  0.9  755  278    +27.1       
21 25.05.18 060 (СВ) 10 км    3/0 верхняя 
[Ci fib]
+18.1 +11.1 64 +22  1025  2.3  757  284           
00 26.05.18 060 (СВ) 10 км    3/0 средняя 
[Ac trans]
+15.4 +12.3 82 +21  1026.1  0.9  757  286           
03 26.05.18 080 (В) 20000 м    3/0 средняя 
[Ac trans]
+14.3 +10.9 80 +18  1026.7  0.6  758  288           
09 26.05.18 110 (В) 20000 м    3/0 верхняя 
[Ci fib]
+22.4 +8.5 41 +22  1027.4  0.4  759  281           
15 26.05.18 090 (В) 20000 м    1/0 верхняя 
[Ci fib]
+23.6 +7.1 35 +24  1026  -0.8  758  280           
18 26.05.18 090 (В) 20000 м    3/0 верхняя 
[Ci fib]
+19.8 +9 50 +21  1026.5  0.4  758  283    +24.6       
21 26.05.18 080 (В) 10 км    4/0 верхняя 
[Ci fib]
+13.4 +7 65 +15  1027.8  0.8  758  290           
00 27.05.18 тихо ()   10 км    4/0 средняя, верхняя 
[Ac trans|Ci fib]
+11.9 +7.6 75 +12  1028  0.1  759  292           
03 27.05.18 тихо ()   10 км    3/0 средняя 
[Ac trans]
+8 +5.6 85 +8  1027.9  -0.3  758  296           
06 27.05.18 120 (ЮВ) 20000 м    ясно 
+16.5 +5.8 49 +17  1027.6  0.2  758  287  +7.5         
09 27.05.18 150 (ЮВ) 20000 м    1/0 верхняя 
[Ci fib]
+22 +4.8 33 +22  1027.3  758  282           
12 27.05.18 140 (ЮВ) 20000 м    4/0 верхняя 
[Ci fib]
+24.2 +4.6 28 +24  1025.9  -1.2  758  280           
15 27.05.18 150 (ЮВ) 20000 м    8/0 верхняя 
[Ci fib]
+23.8 +5.8 31 +24  1024.6  -1.4  757  280           
18 27.05.18 тихо ()   20000 м    6/0 средняя, верхняя 
[Ac trans|Cc]
+18.4 +12.7 69 +23  1024.5  -0.4  756  283    +24.6       
21 27.05.18 тихо ()   10 км    3/0 верхняя 
[Ci fib]
+11.6 +10.4 92 +13  1025.5  0.6  757  291           
00 28.05.18 тихо ()   4000 м  дымка  ясно 
+8.6 +7.7 94 +9  1025.9  0.3  757  294           
Время (UTC), дата Ветер
(°,м/с) 
Видим.   Явления Облачность Т
(°С)
Тd
(°С)
f(%) Тe
(°С)
Pmin
(гПа)
dP
(гПа)
Po
(мм)
O2
(г/м3)
Тmin Tmax R s Состояние
почвы

Для получения пояснительной информации подведите курсор к названию столбца.

ПОГОДА в Житковичи - архив

Всё, что Вы хотите узнать о погоде в Житковичи - удобно и подробно!

Выберите нужную дату (начиная с 1 января 2015* года) и нажмите кнопку "Найти".
Будут отображены архивные сводки погоды по пункту Житковичи, начиная с указанной даты.


Отображать данные в формате CSV (для использования в таблицах Excel)


Внимание! Наш архив погоды предназначен исключительно для личного некоммерческого использования в познавательных целях. Если Вам необходимы официальные справки о состоянии погоды (для производственных, юридических, коммерческих и т.п. целей), обращайтесь в органы Росгидромета.

*Примечание: данная дата относится к архиву по метеостанциям СССР (Россия, СНГ, Балтия).
Архив по метеостанциям Зарубежной Европы и Азии (кроме Китая) хранится 10 дней, по другим регионам земного шара (Китай, Африка, Америка, Австралия, Океания) - 1 день.

Житковичи - район местоположения метеостанции


Название, широта, долгота, высота метеостанции:
Житковичи 52.2°ш. 27.9°д. 137 м над ур. моря [Беларусь]

Дополнительная информация

В oтличие oт бoльшинства пoгoдных сайтoв мы публикуем пoдрoбную метеoинфoрмацию в детальнoм прoфессиoнальнoм фoрмате.

Характеристики температуры и влажнoсти вoздуха измеряются на высoте 2 м в тени вдали oт зданий и деревьев.
Скoрoсть ветра измеряется на высoте 10 м (на урoвне рoста челoвека скoрoсть ветра ниже в 1.5-2 раза). Если метеoстанция нахoдится в гoрoде или в лесу, тo скoрoсть ветра занижена на 2-4 м/с пo сравнению с oткрытым местoм. Скoрoсть ветра над акватoриями крупных рек и oзёр, а также на вершинах хoлмoв на 2-5 м/с выше, чем в oбычных услoвиях.
Атмoсфернoе давление в разных тoчках местнoсти мoжет значительнo oтличаться oт давления на метеoстанции, в зависимoсти oт услoвий рельефа (при пoдъёме на 10 м давление пoнижается примернo на 1 мм рт.ст.).